Showing default

DIWATA 2B, 43678

Orbit data source: Space-Track

DIWATA 2B, 43678 is a Filipino payload satellite in SSO that was launched on Mon, 29 Oct 2018 UTC via an H-IIA 202 launch vehicle from the Tanegashima Space Center (TNSTA). Payloads include a variety of satellites, spacecraft, and rockets equipped with specific instruments for various scientific and technological missions. These include communications satellites like Starlink; space stations such as the ISS; scientific satellites like the Hubble; Earth observation satellites from companies like Planet Labs, Umbra, and HawkEye 360; GPS; miniature CubeSats for education and research; and military/defense satellites.

Loading next visibility...
DIWATA 2B details
Identifier
43678, 2018-084H
Orbit
SSO
Last TLE update8 hours ago
Origin
Flag of PHDOST/UPD (PH / RP)
ManufacturerUPD/HOKK
MissionOperational Civil Imaging
Bus & MotorDIWATA, Unknown motor
Mass56 kg wet, 56 kg dry
Launch date (UTC)
2018-10-29 (6 years ago)
Launch vehicle
H-IIA 202
Launch site
Tanegashima Space Center (TNSTA)
Object type
Payload
Rocket body
Debris
Shape & HBRBox + 2 Pan, Unknown HBR
Radar Cross Section0.514 m², Medium (>0.1 m² and < 1m²)

Expand to show TLE details & history

TLE from 8 hours ago
0 DIWATA 2B
1 43678U 18084H   24361.49720696  .00003925  00000-0  34674-3 0  9994
2 43678  98.0880 165.6129 0010046 110.0997 250.1305 14.96941196335671
Epoch: 2024-12-26T11:55Z
Definitive object data (Epoch: 2024-12-26T11:55:58.681Z)
Latitude-0.00007°
Longitude-108.85735°
Altitude581.774 km
Speed7.568 km/s
True Right ascension11h 02m 27s
True Declination0° 00' 00"
Sunlit
Object was in daylight at TLE epoch
Visualization TLE readout
Latitude81.68921°
Longitude146.86305°
Altitude583.133 km
Speed7.579 km/s
Apparent Right ascension07h 10m 23s
Apparent Declination26° 46' 12"
Sunlit
Object is in full shadow
Visualization observer readout
Local Sidereal Time19:44:38
Azimuth8.292° NNE
Elevation-22.839°
Doppler factor1
Orbital elements
Apogee altitude580.364 km
Perigee altitude566.397 km
Semi-major axis6,951.518 km
Eccentricity0.0010046
Inclination98.088°
RAAN165.6129°
Arg. of periapsis110.0997°
True anomaly250.02228°
Mean anomaly250.1305°
Eccentric anomaly250.07639°
Mean motion3.74476 °/min
BSTAR0.00034674
Orbital period96.13 mins
Loading maneuver chart data...

DIWATA 2B Visibility forecast

Observer location: undefined°, undefined

Span
Click to sort rows by Start time (UTC) header in descending order
Start Az.
Max El. time (UTC)
Max El. Az.
Max El.
End time (UTC)
End Az.
7 mins2024-12-26 23:43:49.671Z26.527° NE2024-12-26 23:46:49.671Z79.049° E36.048°2024-12-26 23:50:49.671Z174.461° S
5 mins2024-12-27 10:32:49.671Z117.3° SE2024-12-27 10:34:49.671Z72.079° E26.872°2024-12-27 10:37:49.671Z13.449° NNE
4 mins2024-12-27 12:08:49.671Z240.65° WSW2024-12-27 12:09:49.671Z259.475° W18.21°2024-12-27 12:12:49.671Z309.815° NW
|